RH
27 26 24 22 20 18 17 16 16 16 16 19 25 44 68 86 101 106 103 102 100 100 103 93 80 72 74 89 96 95 100 103 103 101 94 90 86 83 79 80 95 103 104 106 103 98 94 97 99 99 100 101 103 103 100 100 102 102 99 97 98 97 94 91 91 84 73 64 58 56 51 43 39 36 34 34 31 30 28 27 27 26 27 30 32
23 22 20 19 18 16 16 15 14 14 14 15 18 31 47 62 88 106 104 102 100 98 102 98 86 75 72 81 89 90 94 95 99 103 101 96 92 92 90 85 89 100 103 102 105 102 95 99 103 99 98 97 99 103 101 100 101 99 98 98 97 95 94 95 92 83 70 62 58 55 47 41 39 35 34 33 30 30 29 28 27 27 28 30 33
19 18 17 17 16 16 15 15 15 14 14 15 16 23 30 39 73 105 105 100 100 98 100 100 91 80 75 79 84 89 93 93 95 99 100 100 99 99 99 96 92 96 101 101 104 103 96 101 102 94 93 94 97 100 97 97 97 95 96 95 93 94 95 95 90 79 69 62 58 52 43 39 37 35 33 31 31 31 30 29 29 28 29 31 33
17 17 16 16 15 16 17 16 16 15 14 16 16 20 24 29 59 97 105 99 101 102 98 94 90 83 79 82 87 94 99 99 100 100 99 100 101 101 100 101 99 97 98 98 100 99 95 97 97 92 95 95 93 92 90 94 98 97 96 94 95 99 97 92 87 77 67 60 54 46 41 39 36 34 32 31 32 31 31 31 31 31 31 32 34
17 17 15 16 17 17 20 19 18 17 16 19 19 19 24 25 50 92 105 100 102 106 99 89 86 84 84 89 94 98 100 101 102 101 101 102 101 103 101 101 101 97 93 91 90 90 89 89 91 92 92 86 80 80 86 96 101 99 100 102 102 101 96 90 83 72 62 55 48 42 40 38 35 34 34 34 34 33 33 33 34 34 34 35 36
17 16 17 17 18 20 24 22 20 20 22 34 38 33 30 28 49 89 105 102 103 106 99 86 82 83 86 93 98 99 99 100 102 100 101 102 101 102 103 103 102 100 97 94 92 91 90 87 86 88 86 82 80 84 94 102 102 101 103 104 101 97 93 86 74 62 54 47 42 40 38 35 35 36 38 39 38 37 37 36 36 37 37 37 38
17 18 20 19 24 28 27 25 28 39 52 66 71 65 62 60 72 94 105 105 104 102 99 88 80 82 89 94 97 99 100 100 101 101 100 100 101 101 102 103 102 102 101 100 100 98 98 96 94 95 97 99 100 100 103 104 102 102 102 99 96 94 88 75 62 53 47 42 39 37 34 33 35 38 40 42 44 45 44 43 41 40 40 39 39
19 23 25 28 34 31 31 46 63 79 89 92 92 90 92 93 96 101 103 105 105 102 101 95 88 88 92 97 99 100 100 101 101 101 100 99 100 100 100 101 101 102 102 102 102 101 101 102 101 101 102 103 103 103 102 101 101 101 98 95 93 88 74 59 50 44 39 37 35 33 32 34 38 40 43 44 48 52 54 55 53 49 47 45 43
28 31 34 38 35 34 56 86 96 100 101 97 96 98 100 100 100 101 102 103 104 103 103 102 101 101 98 98 100 101 100 101 101 101 101 101 101 100 100 101 101 103 103 101 101 102 101 100 101 101 100 100 100 101 101 100 99 97 94 90 83 70 54 45 40 37 34 32 31 31 33 37 40 42 45 47 50 54 58 60 61 60 56 52 48
41 40 45 45 41 56 89 104 100 101 102 98 99 99 100 100 100 100 102 103 103 103 102 100 100 101 102 101 100 100 99 98 97 96 96 95 93 94 95 97 100 101 100 101 101 101 100 100 100 100 100 100 100 100 100 98 96 92 86 76 61 48 40 36 34 32 31 31 32 35 38 40 43 44 46 48 51 53 56 57 58 60 60 56 52
50 61 65 57 61 85 102 101 99 102 100 99 101 100 100 100 101 100 98 100 100 98 97 92 87 85 87 87 85 82 80 76 74 72 69 66 63 63 66 74 84 88 91 99 103 101 100 100 99 100 100 100 100 100 98 94 87 77 65 52 41 35 33 32 30 31 33 36 39 43 45 45 46 48 49 50 51 53 54 55 55 56 57 56 54
55 79 74 61 79 100 103 100 101 101 99 101 101 100 101 100 101 101 96 94 92 88 84 79 74 70 67 65 61 57 53 50 49 46 44 42 41 41 43 52 64 71 77 87 94 98 100 100 100 99 98 96 93 88 80 71 60 49 40 35 32 31 30 30 33 37 41 45 48 49 50 51 52 53 54 53 52 52 52 52 52 52 52 51 51
52 72 61 60 89 103 101 101 100 100 100 101 100 100 101 100 101 101 96 91 85 78 74 68 63 60 60 64 65 60 54 50 49 46 44 43 41 41 40 42 46 50 54 57 61 67 71 73 73 72 70 66 61 55 48 42 36 33 31 29 29 30 33 38 43 47 50 51 53 53 55 56 58 58 56 54 52 50 49 48 47 47 47 48 49
43 52 46 62 95 103 100 101 99 100 101 99 101 101 100 101 101 101 99 94 81 67 60 57 57 56 54 59 66 68 64 61 60 58 59 61 59 55 52 50 49 48 47 46 45 45 45 45 45 44 42 39 36 34 31 30 29 28 29 30 34 39 44 49 52 53 54 55 56 58 59 59 59 58 55 53 51 49 48 46 46 45 46 47 49
36 37 37 65 99 102 100 103 99 100 102 100 101 102 101 100 100 103 104 99 86 70 56 47 48 51 51 51 53 55 54 54 56 60 66 70 66 60 56 54 52 50 48 45 44 42 41 40 38 36 33 31 29 28 27 28 29 31 36 40 46 50 53 55 56 56 56 58 60 61 61 60 58 56 54 52 50 49 48 46 45 46 46 47 48
33 33 46 79 101 101 102 103 100 102 103 102 102 104 101 97 99 105 104 98 89 79 67 56 50 50 54 56 56 56 56 56 58 60 63 62 55 49 47 46 45 44 42 40 39 37 36 34 32 30 29 28 28 28 30 33 38 43 48 52 55 56 57 57 57 57 58 60 62 61 61 59 57 55 53 51 49 47 46 44 42 42 42 44 46
33 39 67 95 101 100 105 104 104 106 105 104 105 104 100 97 100 104 101 94 85 75 69 68 65 61 65 73 73 69 66 65 66 65 60 53 47 44 44 45 46 44 42 40 37 35 33 32 31 30 29 30 33 36 40 45 50 54 56 58 58 57 57 57 57 59 61 62 62 61 60 58 55 53 50 47 46 45 43 42 40 39 39 41 44
34 41 74 103 103 102 106 106 108 108 105 104 102 98 93 90 91 91 87 80 73 68 69 73 72 67 69 73 69 61 54 54 62 66 60 52 46 43 42 44 44 42 41 39 37 36 35 34 33 33 34 37 41 46 51 55 58 59 58 57 56 55 56 59 60 62 62 62 62 60 57 54 51 49 48 47 47 47 46 43 41 40 40 42 44
36 38 60 90 100 100 100 98 96 96 97 98 94 89 85 82 82 81 75 68 64 65 69 75 75 67 60 57 53 47 42 46 60 67 62 55 49 43 41 41 41 40 40 39 39 38 37 36 36 36 39 44 50 55 58 59 58 57 56 55 55 57 59 61 62 63 64 63 60 56 53 52 51 51 50 50 49 48 47 44 42 42 42 43 43
35 36 44 62 75 80 83 83 75 71 77 83 82 78 75 71 68 67 66 65 65 65 64 66 69 63 53 48 44 41 43 53 65 67 62 57 51 46 46 46 45 44 43 41 40 39 38 38 38 40 45 51 55 57 57 56 55 54 54 55 58 60 62 64 64 64 62 58 55 53 54 54 54 52 50 49 49 48 46 45 44 44 43 41 39
33 34 36 42 48 53 65 70 60 51 54 60 66 68 64 58 54 54 58 61 63 63 58 59 62 56 47 44 44 45 51 59 62 62 60 54 49 48 49 49 47 45 44 42 40 39 39 39 41 46 51 53 54 55 54 54 54 54 56 59 62 63 64 64 62 60 57 55 55 56 57 56 53 50 50 49 49 48 47 47 45 43 39 34 31
33 33 32 34 35 41 55 62 53 46 44 45 52 57 58 61 64 63 62 61 61 61 58 57 54 47 44 46 50 55 59 59 59 58 54 48 48 50 50 49 47 45 44 42 41 40 41 43 47 50 51 52 53 54 55 55 55 57 61 63 64 63 61 58 57 57 58 58 59 58 56 54 52 51 51 51 50 49 48 45 41 35 30 27 27
35 33 34 33 32 37 47 51 47 46 44 43 46 48 53 66 71 65 59 58 59 58 55 51 46 44 49 53 57 61 62 59 58 55 50 49 52 53 52 50 47 45 43 42 43 45 47 49 50 50 51 54 56 57 57 58 59 61 63 62 60 57 55 55 57 61 63 61 59 56 54 54 53 53 52 51 50 48 43 38 32 28 28 31 34
38 34 35 34 39 48 53 50 49 48 43 41 40 40 46 56 57 52 52 56 57 53 48 43 43 48 55 59 61 61 60 58 56 54 52 53 54 53 52 49 46 44 45 46 49 51 51 51 51 51 54 57 59 59 60 60 60 60 58 55 53 54 56 60 63 64 63 60 56 55 56 57 56 54 53 50 46 40 34 29 27 30 34 38 38
32 32 35 35 43 54 55 49 47 44 41 42 44 45 46 47 47 49 52 52 49 44 40 40 48 58 63 65 64 60 56 55 55 56 55 55 56 56 53 48 47 49 50 53 54 54 54 53 53 54 57 60 62 62 61 58 56 53 52 52 54 59 62 62 61 61 60 58 58 60 61 59 57 54 50 45 38 32 27 26 30 35 37 35 31
29 30 32 33 38 44 43 39 37 36 38 45 49 51 49 46 45 44 42 40 40 41 41 44 56 66 65 61 59 55 54 53 54 56 56 57 58 56 52 50 52 54 55 57 57 57 57 56 57 59 62 65 64 60 57 54 53 54 54 57 61 62 61 59 58 59 60 61 64 67 66 61 56 52 46 39 32 28 28 32 37 37 33 29 26
31 29 30 30 32 34 34 33 34 34 37 40 41 42 42 38 36 34 34 39 46 50 50 51 56 59 57 56 56 54 53 54 56 57 58 59 59 56 55 56 57 58 58 59 59 60 61 61 62 64 64 63 60 57 56 55 56 58 58 61 62 61 60 59 59 61 63 66 70 73 70 63 57 50 41 33 30 30 35 39 38 34 29 26 22
34 33 32 30 29 30 31 32 34 35 36 37 37 39 39 38 39 42 44 48 54 54 50 52 58 60 61 62 58 54 55 58 61 63 63 62 60 59 60 60 61 60 60 61 64 66 66 66 65 64 62 61 60 59 59 59 58 59 59 61 63 64 64 62 62 66 68 71 76 77 71 64 57 47 37 32 32 37 40 39 34 29 25 21 17
36 35 33 33 33 32 33 34 36 39 42 43 45 47 47 47 49 50 50 51 52 49 47 53 61 62 62 62 58 58 63 66 70 71 69 65 63 62 63 62 61 62 63 68 71 71 70 69 66 64 63 63 64 63 62 61 60 61 64 68 70 70 67 66 69 72 73 77 79 76 70 63 54 43 35 35 38 40 39 34 28 23 19 17 16
34 35 37 39 39 38 37 38 39 43 47 48 50 53 53 52 52 53 55 56 57 58 60 62 63 64 65 66 67 69 73 75 75 73 69 66 64 63 62 62 64 66 70 74 75 74 73 71 68 65 64 65 66 66 66 65 66 70 75 78 76 72 69 72 76 78 80 83 81 74 67 58 46 38 37 40 42 39 33 27 22 18 16 17 17
36 36 39 39 38 38 38 38 39 44 49 53 57 60 60 59 59 59 61 64 67 70 71 71 73 75 75 76 77 79 80 78 74 71 67 64 62 62 63 66 70 73 75 77 77 76 75 72 68 66 67 68 69 70 70 72 76 80 83 81 76 74 75 78 81 83 86 86 81 73 63 50 40 38 42 44 41 34 27 20 17 16 16 17 17
37 35 37 36 35 35 36 38 41 45 51 56 58 59 58 59 61 63 64 67 72 75 78 82 84 83 82 85 87 86 82 77 71 67 64 62 63 66 69 72 75 76 78 80 79 77 74 71 70 70 71 72 72 74 77 83 87 88 85 80 77 79 82 83 84 88 91 88 80 70 55 43 40 44 46 43 35 26 21 18 17 18 17 16 16
36 36 36 35 35 36 38 41 47 53 57 59 59 59 61 63 66 68 70 74 79 82 83 84 83 84 88 91 90 84 77 72 67 64 63 64 68 71 73 76 78 78 78 78 76 75 74 74 76 76 75 75 78 83 89 95 95 90 85 82 83 86 86 86 90 94 94 87 75 60 47 42 46 48 43 35 27 21 20 19 19 18 18 17 16
37 36 36 37 38 40 42 45 51 57 61 64 65 67 69 70 71 73 76 79 81 82 83 85 89 94 96 92 84 77 71 67 65 65 67 69 72 74 76 77 77 76 76 75 75 76 78 79 80 78 77 81 87 95 99 99 95 90 87 87 88 90 90 92 96 97 92 80 64 50 45 47 49 45 36 27 22 21 21 21 20 19 18 17 16
38 37 37 39 41 44 47 50 53 59 63 67 70 71 72 73 74 78 81 82 83 86 92 99 103 101 94 83 75 69 66 66 67 68 71 73 75 78 77 76 75 74 74 74 75 76 77 76 74 73 75 84 94 101 101 97 94 91 89 89 91 93 95 97 99 95 84 68 54 48 49 50 46 37 28 22 22 23 23 22 21 20 19 18 16
40 39 38 39 42 44 48 52 60 67 71 73 74 75 76 78 79 82 85 88 93 99 104 106 101 93 82 72 67 66 67 68 70 72 74 75 76 75 74 73 73 72 73 74 75 76 76 74 72 71 75 85 96 100 99 95 94 92 90 91 94 96 98 99 95 86 71 56 51 52 51 47 38 29 24 23 24 24 24 24 23 21 19 18 17
42 40 39 40 42 44 47 54 64 71 75 77 79 79 79 80 82 87 93 99 104 106 102 96 88 79 71 67 67 70 71 72 74 75 75 73 71 71 72 73 73 75 78 81 83 84 84 82 79 76 78 87 98 100 97 94 93 93 93 94 96 97 98 95 85 72 60 54 55 54 48 40 31 25 24 25 26 26 26 25 23 21 20 19 19
41 40 41 44 48 51 55 61 68 74 78 79 78 77 78 83 89 94 100 104 102 97 89 83 76 71 69 72 75 75 74 74 74 73 71 70 71 74 76 77 81 86 90 93 96 97 96 92 85 80 82 93 101 100 95 93 93 96 96 95 95 95 93 85 73 62 57 57 56 50 42 34 28 25 26 27 27 27 26 25 23 22 21 21 22
41 40 42 46 54 63 70 77 83 86 87 84 84 87 91 97 100 101 100 97 90 83 77 74 73 74 77 79 77 73 72 72 72 71 72 74 77 80 82 86 91 96 100 103 106 105 103 98 88 83 89 99 103 99 95 95 96 97 95 93 93 92 85 74 63 60 60 58 52 45 38 30 26 26 28 28 27 27 26 25 24 23 23 23 23
41 41 41 45 55 67 77 86 91 92 92 94 99 102 104 105 104 97 89 82 77 74 73 75 78 80 80 76 73 72 74 74 73 73 73 75 79 82 87 94 99 104 108 110 108 104 100 95 89 88 94 100 100 98 98 99 99 94 90 90 91 87 77 66 62 63 62 56 49 42 34 28 27 29 30 29 28 27 26 26 26 25 25 25 24
41 40 41 47 58 67 75 83 90 95 99 104 107 106 102 98 91 83 77 75 76 77 79 83 84 80 76 74 75 76 76 74 73 73 75 78 82 87 95 102 106 110 111 108 105 102 96 91 92 96 101 102 101 101 102 100 95 89 89 92 92 82 70 65 67 66 61 54 49 41 32 28 29 31 32 32 30 28 27 28 28 27 25 24 22
45 47 50 56 66 76 84 92 97 99 100 100 98 93 86 81 77 75 75 78 82 84 85 83 81 78 78 79 78 76 74 73 75 79 83 87 92 99 105 107 106 107 106 104 102 98 92 92 99 106 108 108 106 104 100 94 90 92 96 96 86 74 68 71 72 66 60 56 49 37 30 30 32 33 34 34 32 30 29 30 31 29 26 24 21
50 57 63 71 82 91 96 96 93 91 90 88 83 77 74 75 77 79 81 85 88 86 83 81 81 82 82 80 77 76 78 81 85 89 92 95 100 105 105 103 102 102 103 103 99 93 94 101 107 108 108 109 106 101 96 93 96 101 98 87 76 72 74 76 71 66 63 57 45 34 30 32 33 35 36 35 34 31 30 32 33 31 27 24 22
57 66 75 83 88 89 85 82 82 81 81 78 74 75 79 83 85 85 84 85 86 84 84 86 86 84 80 80 84 91 96 96 95 97 100 102 105 106 104 101 101 102 102 100 95 95 103 109 108 105 106 108 106 100 98 101 103 97 86 77 76 80 80 76 71 69 66 53 39 32 32 34 35 37 37 36 35 32 31 33 35 31 27 25 24
63 68 72 73 73 73 74 77 78 76 75 74 78 85 89 89 88 88 86 86 90 95 95 89 83 81 84 91 99 105 109 108 104 104 107 108 108 108 106 103 101 101 102 99 98 105 111 108 104 105 107 107 105 103 104 103 95 84 77 79 83 84 80 75 74 72 62 44 34 33 34 36 37 37 37 37 37 34 32 33 34 31 28 27 26
61 63 64 66 69 71 73 74 74 74 78 85 92 95 93 91 92 94 95 97 98 95 87 80 81 89 97 102 102 104 110 114 111 108 110 112 112 110 107 105 103 101 101 102 106 112 111 105 104 104 102 102 104 105 102 93 82 76 79 85 87 83 79 78 77 68 51 36 34 36 37 37 37 36 38 39 39 37 34 33 34 32 29 28 28
56 58 62 66 69 70 72 76 82 88 93 96 95 92 92 95 98 99 97 92 84 77 76 83 94 101 104 104 101 101 109 116 115 111 110 111 113 112 109 106 103 101 103 108 110 109 106 104 104 102 100 103 105 101 91 81 77 82 90 93 90 84 82 81 73 56 39 34 37 39 39 38 37 38 39 39 39 39 37 35 34 34 31 30 29
60 64 68 72 74 78 84 92 97 98 96 93 90 90 92 93 93 89 82 75 73 78 88 98 105 104 102 102 100 101 108 114 113 111 110 109 110 111 107 103 103 105 109 111 109 105 102 101 101 101 103 104 100 92 84 81 87 98 102 97 90 85 83 76 59 41 34 37 40 41 40 39 39 40 40 39 39 41 40 37 36 35 35 33 31
71 76 80 83 86 90 95 99 97 93 89 86 87 88 87 82 78 75 74 76 85 94 100 103 105 104 101 101 100 102 107 111 110 110 111 111 109 107 104 104 107 110 110 109 106 102 101 102 104 104 102 99 93 89 88 94 103 107 101 91 87 85 78 61 42 34 37 41 42 42 41 41 42 42 43 43 44 45 42 39 37 38 39 37 35
85 88 91 93 96 97 97 97 93 88 84 82 80 78 75 73 73 77 82 90 99 104 104 103 103 101 100 102 104 106 108 110 111 112 112 109 105 103 104 108 111 112 110 106 102 100 102 104 103 98 95 94 94 95 100 107 108 100 90 87 85 76 60 43 34 37 41 43 44 44 43 43 45 45 45 48 50 49 45 41 39 41 42 40 38
95 96 96 97 98 97 95 94 90 85 80 77 74 73 75 79 84 89 96 101 105 106 105 102 101 103 105 106 109 111 111 111 111 110 106 103 103 105 109 112 110 107 104 102 101 104 105 101 94 92 95 99 101 106 112 108 97 87 84 82 72 55 41 35 36 41 44 45 45 45 45 45 46 46 48 52 53 51 46 43 42 42 43 43 41
Wind_Speed
55 55 55 55 55 55 56 58 59 60 60 58 55 53 53 53 53 52 50 50 50 50 49 48 49 49 49 47 43 42 41 40 40 40 41 41 42 43 43 40 41 46 48 48 49 50 51 53 55 56 56 57 58 61 65 67 68 69 70 71 73 75 78 81 83 84 84 83 82 81 80 79 79 78 75 71 68 63 59 56 53 50 47 44 43
57 56 56 56 56 56 56 57 59 60 61 60 57 54 53 53 53 53 52 52 53 53 51 48 48 49 50 49 47 45 44 44 43 43 43 44 44 44 43 40 40 46 51 52 53 55 55 55 56 57 59 60 62 65 68 69 70 71 73 75 77 79 82 84 85 86 85 84 84 83 81 79 78 77 74 70 66 61 58 55 53 50 46 44 42
58 57 56 56 56 56 56 56 58 60 61 60 57 55 53 52 53 53 53 54 54 54 53 50 49 49 49 50 49 47 46 45 45 44 43 44 44 43 43 41 40 45 51 55 58 59 59 58 58 60 62 64 66 68 70 71 73 74 76 78 80 82 84 86 87 87 86 85 84 83 82 80 78 76 73 68 64 60 58 55 53 50 46 44 43
56 55 55 55 55 56 56 56 57 58 59 58 56 54 53 52 52 52 53 53 54 54 54 53 51 50 50 49 49 47 46 46 45 44 43 43 43 43 43 43 43 45 49 54 58 60 60 60 61 63 65 67 68 70 72 73 75 77 79 81 82 84 86 86 87 87 86 85 83 82 81 80 78 75 71 66 62 59 57 54 52 50 47 45 44
54 53 53 54 54 54 54 54 54 55 55 54 52 51 51 51 51 52 53 53 54 54 54 53 52 51 50 49 48 47 47 46 46 44 43 42 42 43 44 44 46 48 50 53 56 59 61 63 64 66 68 70 71 73 74 76 77 79 81 83 85 86 86 87 87 86 85 84 82 81 79 77 75 72 69 65 62 59 56 54 52 50 47 46 45
52 51 52 52 52 51 49 49 50 51 50 48 46 46 47 48 49 49 51 53 54 54 55 54 52 50 49 49 48 48 47 47 46 45 43 42 43 45 45 46 47 49 51 54 56 59 62 64 66 68 70 73 74 75 77 78 80 81 83 85 86 87 87 87 86 85 84 83 81 80 77 74 71 68 65 64 62 60 57 54 52 50 48 47 46
50 50 50 50 48 46 45 45 45 45 44 42 40 40 41 42 44 45 48 51 53 54 55 54 52 50 49 49 50 50 49 49 48 48 47 46 48 50 51 51 51 51 53 55 57 59 62 65 67 69 72 74 75 77 78 80 81 83 85 86 87 88 88 87 86 85 83 82 80 78 76 72 68 65 62 61 61 60 58 56 54 52 50 49 48
48 47 46 45 43 41 41 41 40 39 38 36 35 34 34 35 38 40 44 47 50 52 53 54 54 53 52 52 52 53 53 53 52 52 52 52 54 56 55 54 54 54 56 58 60 62 64 67 69 71 72 74 75 77 79 80 82 84 86 87 88 88 88 87 86 85 83 81 79 76 72 69 65 63 61 59 58 59 59 58 57 55 53 52 52
44 43 42 42 40 39 38 38 37 37 36 33 31 29 30 31 33 35 38 42 45 48 49 51 53 53 54 54 55 56 56 56 56 55 56 56 58 59 59 58 57 57 58 60 62 64 66 68 70 72 74 75 77 79 80 82 84 86 87 87 88 88 88 87 86 85 82 80 77 73 70 66 64 62 60 59 57 56 57 58 58 58 58 56 55
41 40 40 40 39 37 38 38 37 36 35 32 29 27 28 29 30 32 34 37 40 43 45 47 49 51 52 53 54 55 55 56 56 56 56 57 57 58 59 59 59 59 60 61 63 65 67 69 71 73 75 77 79 81 82 84 85 86 87 88 88 88 88 87 85 83 80 77 74 72 69 67 65 63 61 59 58 56 56 57 58 60 61 60 59
39 39 40 39 38 37 38 40 39 37 35 33 30 29 29 29 30 31 32 34 36 38 41 43 46 48 49 50 51 52 52 52 53 53 53 54 54 55 56 57 58 60 61 62 64 66 68 70 72 74 76 78 80 82 83 85 86 87 87 87 87 87 85 83 81 78 76 74 72 71 70 68 67 65 64 62 60 59 58 59 60 61 63 64 64
40 40 40 38 37 37 37 39 39 38 36 35 34 32 32 32 32 31 31 32 34 36 38 39 42 44 45 47 48 49 49 49 49 49 49 50 51 52 53 55 57 59 61 63 66 68 70 72 73 75 77 79 81 82 84 85 86 86 86 86 84 83 80 78 76 74 73 72 71 71 70 69 68 67 66 64 63 62 62 62 62 63 65 66 67
41 41 40 38 37 37 38 38 38 37 37 37 37 36 36 35 34 33 32 33 35 36 36 37 39 41 43 44 45 46 46 47 47 47 48 49 50 52 54 55 58 60 62 64 66 68 70 72 74 75 77 79 80 81 82 83 83 83 82 80 78 76 75 73 73 72 72 72 72 71 71 70 69 68 68 67 67 66 65 65 65 66 67 68 69
41 41 41 40 38 38 39 39 38 37 38 38 38 38 39 38 37 37 37 38 38 38 39 40 40 41 43 43 44 45 46 48 49 50 50 51 52 54 56 57 59 61 62 64 66 68 70 71 73 74 76 77 78 78 79 78 78 77 75 74 73 72 72 72 72 72 72 72 72 71 71 70 70 70 70 70 70 70 69 69 69 69 69 70 71
41 42 42 42 41 40 39 39 39 39 39 40 40 40 41 42 42 42 42 43 44 44 44 44 44 44 45 45 46 47 49 50 52 53 54 54 55 57 58 60 61 63 64 66 67 68 70 71 72 73 74 74 74 74 74 73 72 71 71 71 71 71 71 72 72 73 72 72 71 71 71 71 72 72 73 73 73 73 73 72 71 70 70 70 71
42 43 43 43 43 42 41 42 42 41 41 42 43 43 44 46 47 47 48 48 48 48 47 47 47 47 47 48 49 50 51 52 54 55 56 57 58 59 61 62 63 64 65 66 67 68 69 70 70 71 71 71 71 71 70 70 69 69 69 70 70 71 72 72 73 73 72 71 71 71 72 73 74 75 75 76 75 75 74 73 72 70 68 68 68
43 44 44 44 44 43 43 44 44 44 44 44 45 45 46 48 49 50 51 51 51 50 50 49 49 49 49 50 51 52 53 55 56 57 58 59 61 62 63 63 64 65 66 67 68 69 69 70 70 70 70 70 69 68 68 68 68 69 69 70 71 72 72 72 72 72 71 71 72 72 73 75 75 76 76 76 76 76 75 74 72 70 68 66 66
44 45 46 46 45 45 45 45 46 46 46 46 46 47 48 48 49 50 51 51 52 52 52 52 52 51 52 53 54 56 57 59 60 60 61 62 63 64 64 65 66 67 67 68 69 69 70 70 70 69 68 67 66 67 67 68 69 70 70 71 71 71 71 71 71 71 71 72 73 74 75 76 76 77 78 78 77 77 76 74 72 70 69 67 66
46 47 48 48 47 47 47 46 47 48 49 49 49 49 50 50 51 52 52 53 53 54 54 54 55 55 56 58 59 61 62 63 63 63 63 64 64 65 65 66 67 67 68 68 69 69 69 69 68 67 66 66 66 67 68 69 70 70 70 71 71 70 70 70 70 71 71 72 73 74 76 77 78 79 79 79 78 77 75 74 73 71 70 69 68
48 48 49 49 49 49 49 49 49 50 50 51 51 52 53 53 54 55 55 56 56 56 57 57 58 59 60 61 63 64 65 65 65 64 65 64 64 65 66 67 67 68 68 68 68 68 68 68 67 66 66 66 67 68 69 69 70 70 70 70 70 69 69 69 70 70 71 72 74 75 77 78 80 80 80 79 78 76 75 74 73 72 71 70 69
50 50 50 50 51 51 51 51 52 52 52 52 53 54 54 55 55 56 57 58 58 59 60 60 60 62 63 64 66 66 66 65 65 65 64 64 65 66 67 67 68 68 68 68 68 68 67 67 67 66 67 68 69 69 69 69 69 69 69 68 68 68 68 68 69 70 72 73 75 77 78 80 81 81 81 79 77 76 75 74 73 72 72 70 69
53 52 51 52 52 52 53 53 53 54 54 54 54 55 55 55 55 56 58 59 59 60 61 62 63 64 65 66 67 66 65 65 64 64 64 64 65 66 67 68 68 68 67 67 67 67 67 67 67 68 68 69 69 69 69 68 68 67 67 66 66 67 67 68 69 71 73 75 77 78 80 81 82 81 80 78 76 75 75 74 73 73 72 72 70
54 53 53 53 54 54 54 55 55 55 55 55 56 56 56 56 57 57 58 59 60 61 62 63 64 65 66 66 65 64 64 64 63 63 64 65 66 67 67 68 67 67 66 66 67 67 68 68 68 68 68 68 68 67 67 66 66 65 64 65 65 67 67 68 70 72 75 77 78 80 81 82 81 80 78 76 75 75 74 74 73 73 73 72 71
52 53 53 54 54 54 54 55 55 55 55 56 57 58 58 59 59 59 60 61 61 62 64 65 65 64 62 62 62 63 63 62 62 63 66 67 67 67 67 66 66 65 66 66 67 68 68 68 68 67 66 66 65 65 65 64 63 63 63 64 66 67 68 70 71 73 76 78 79 80 81 82 80 79 77 76 76 75 74 74 73 73 73 72 71
52 52 52 53 54 54 55 56 56 56 57 57 58 59 60 60 61 61 62 62 62 63 64 63 61 57 56 59 62 63 63 62 63 66 68 68 67 67 66 65 65 65 66 67 68 68 68 67 66 64 64 63 63 63 63 62 62 63 64 65 67 68 70 72 73 74 77 79 80 81 82 81 79 78 77 76 76 76 76 75 74 73 73 72 70
53 53 53 53 54 54 55 56 56 56 57 58 59 60 60 61 62 62 61 61 61 61 60 58 55 53 57 62 63 63 64 65 67 68 69 68 66 65 65 65 65 65 66 67 67 66 65 64 63 62 61 61 62 62 62 62 63 64 65 66 68 70 72 73 74 75 77 79 81 82 83 81 79 78 78 77 77 78 77 77 76 74 73 71 70
53 54 54 54 54 54 55 55 55 56 56 57 58 59 60 61 61 61 60 59 59 58 57 56 56 57 60 62 62 64 66 68 69 68 67 65 64 64 64 64 65 65 65 65 64 63 62 62 61 60 60 60 61 62 62 63 64 65 67 68 69 71 73 75 76 76 78 80 82 83 83 82 80 79 79 78 78 79 79 79 77 75 73 71 69
53 53 54 54 54 55 55 55 55 55 56 56 57 58 59 60 60 59 58 58 58 58 57 56 57 58 59 61 65 67 67 68 67 65 63 62 62 62 63 63 63 63 62 61 61 61 61 60 60 60 60 61 62 63 64 65 66 67 69 70 71 73 75 76 77 78 79 81 83 84 83 82 81 81 80 80 80 80 80 79 77 74 72 69 67
53 53 53 53 53 54 54 54 54 54 54 55 55 56 57 58 58 57 57 57 58 59 58 57 58 60 62 65 67 67 65 65 63 62 61 61 62 62 62 61 60 60 59 59 60 60 60 60 60 60 61 62 63 64 66 67 68 69 70 72 73 74 76 77 78 79 81 83 84 84 83 81 81 82 82 82 81 81 79 78 75 73 70 67 66
53 52 52 52 52 52 52 52 52 53 53 54 54 55 57 57 57 56 56 57 57 58 59 59 61 62 64 64 64 62 61 60 60 60 61 62 61 61 59 58 58 58 58 59 59 60 61 61 61 62 62 63 65 66 67 69 70 71 72 73 74 76 77 78 80 81 83 85 85 84 82 81 81 82 82 83 82 81 79 76 73 70 67 65 63
51 52 52 52 52 52 51 51 52 52 52 53 53 55 56 56 55 55 56 56 57 58 59 60 61 61 61 60 59 58 58 59 60 61 61 60 59 58 57 57 57 57 58 59 60 61 61 62 63 63 64 65 66 67 69 70 71 72 73 74 75 77 78 79 81 83 85 86 85 84 82 82 82 82 83 83 82 80 78 75 72 69 66 63 61
49 50 51 51 51 51 51 51 51 51 52 53 53 55 56 56 56 56 56 57 58 59 59 59 59 59 59 58 58 58 59 60 61 60 58 57 56 56 56 56 57 58 59 60 61 61 62 63 64 65 66 67 68 69 70 71 71 72 74 75 76 77 78 80 82 84 86 86 85 83 82 82 82 83 82 82 80 78 75 73 70 68 65 62 60
48 49 50 50 50 50 50 49 50 50 52 53 54 55 55 56 56 56 56 57 58 58 58 58 58 58 58 57 58 60 60 60 59 57 56 56 56 56 57 57 58 59 59 60 61 62 63 65 65 66 67 68 69 70 70 71 72 73 74 75 76 78 79 81 83 85 86 85 83 82 82 82 82 82 81 79 77 75 73 71 69 67 64 62 59
49 49 49 50 49 49 49 49 49 50 51 53 54 54 55 56 56 56 56 57 57 57 57 57 56 56 57 58 59 59 58 57 56 56 56 56 56 57 58 58 59 59 60 61 63 64 65 66 67 68 68 69 69 70 71 72 73 74 75 75 76 78 80 82 84 85 85 83 82 81 81 82 81 80 78 76 74 73 72 70 68 65 63 60 58
49 49 49 49 49 49 49 49 49 51 52 53 54 55 55 56 56 56 56 56 55 55 55 55 55 56 57 58 57 56 55 55 56 56 56 57 57 58 58 59 59 60 61 63 64 65 66 67 68 68 69 69 69 70 71 72 73 74 75 76 77 79 81 83 85 84 82 81 80 80 81 81 79 77 75 73 72 71 70 68 66 63 61 59 57
49 49 49 49 48 48 49 49 50 51 52 53 54 55 55 55 55 54 54 54 53 53 54 55 56 57 57 56 55 55 55 56 56 57 57 57 57 58 59 60 60 61 62 63 64 65 66 67 68 68 68 69 69 70 71 72 73 74 75 76 78 80 82 83 83 81 80 79 79 80 79 78 77 75 73 72 71 69 68 66 63 61 59 58 57
49 49 48 48 48 48 48 49 50 52 53 53 54 54 53 53 53 52 52 52 53 54 55 56 56 56 55 55 55 56 56 56 56 56 57 57 58 58 59 60 61 62 63 64 65 66 67 68 68 69 68 69 69 70 71 72 72 74 75 77 79 81 82 81 80 78 78 78 78 78 77 76 74 73 72 71 69 67 65 62 60 59 57 56 56
49 48 47 47 48 48 49 50 51 52 53 53 52 51 51 50 50 50 51 52 53 54 55 55 55 55 55 55 55 55 55 55 56 56 57 58 58 59 60 61 62 63 64 65 66 67 68 69 69 69 68 69 69 70 71 72 73 74 76 78 80 81 80 78 77 76 76 77 76 75 74 74 73 72 71 69 67 64 61 59 58 57 56 55 55
48 48 47 46 47 48 48 49 50 51 51 51 50 49 49 49 50 50 51 52 53 53 53 53 54 54 54 54 54 54 54 55 55 56 57 58 59 60 61 62 63 64 65 65 66 67 69 70 69 69 68 69 70 71 71 72 74 75 77 79 79 78 77 75 75 75 75 75 74 73 73 72 72 71 69 67 64 61 59 57 55 55 54 54 53
47 47 45 45 46 46 47 48 49 49 49 49 48 48 48 49 50 51 51 51 52 52 53 53 53 53 53 53 53 53 53 55 56 57 59 60 61 61 62 63 64 65 65 66 67 68 70 71 70 69 69 69 70 71 72 73 75 77 78 79 78 76 74 74 74 73 73 73 73 73 73 72 71 70 68 65 62 60 57 55 54 54 53 52 51
46 45 44 44 45 45 46 46 47 47 48 48 48 49 49 50 51 51 51 51 52 52 52 52 52 52 52 52 52 53 55 56 58 59 60 61 62 62 63 64 64 65 66 67 68 69 71 71 70 69 69 70 71 72 73 74 76 78 78 77 75 74 73 72 72 72 72 73 73 74 73 72 70 68 65 63 61 58 56 55 54 53 52 50 49
45 44 44 45 45 45 46 46 46 47 48 49 49 50 50 50 51 51 52 52 52 52 51 51 51 51 51 52 53 55 57 58 59 60 60 61 62 62 63 64 65 66 67 68 69 70 71 70 69 69 70 70 71 73 74 76 77 77 76 74 73 71 71 71 71 71 72 73 74 74 72 71 68 65 62 60 58 57 55 54 54 53 51 50 49
44 44 45 45 45 46 46 46 46 47 48 49 50 50 50 50 51 52 52 52 52 51 51 51 51 51 52 54 56 57 59 59 60 60 61 61 62 63 63 64 65 66 67 69 69 70 70 69 69 69 70 71 72 74 75 76 75 75 73 71 70 69 69 69 70 71 72 74 75 73 71 68 65 62 59 57 56 55 53 53 53 53 51 49 49
44 44 44 45 45 46 46 46 47 48 49 49 50 50 50 51 52 52 52 52 52 52 52 52 52 53 54 56 58 59 60 61 61 61 61 61 62 63 64 65 66 66 68 69 69 69 69 68 68 68 69 71 72 73 74 73 73 71 69 68 67 67 67 68 69 71 73 74 73 71 68 66 62 58 56 55 54 53 52 51 51 51 49 48 48
45 45 45 45 46 46 46 47 48 48 49 50 50 50 51 51 52 52 52 52 52 52 52 53 53 55 57 58 60 61 62 62 62 62 62 63 63 64 64 65 66 67 68 69 69 68 68 68 68 68 69 70 71 71 71 71 69 67 66 65 66 66 66 67 69 71 73 73 71 68 66 62 58 55 53 53 53 52 51 50 49 49 48 48 47
45 45 45 45 46 47 47 48 48 49 50 50 51 51 51 51 52 53 53 52 52 53 54 55 56 57 59 61 62 64 64 64 64 64 64 64 64 65 65 66 66 67 68 68 68 68 68 67 68 68 68 68 68 68 69 68 66 65 64 64 65 65 66 68 70 72 72 70 67 65 63 59 55 53 51 50 50 51 50 49 48 48 48 47 47
45 44 45 46 47 47 48 49 49 50 50 51 51 51 51 52 53 53 53 54 55 56 56 57 58 60 62 64 65 66 66 66 66 66 66 65 65 66 66 66 66 67 67 68 68 68 67 67 67 67 66 65 66 67 66 65 63 63 64 64 65 65 67 68 70 71 69 66 64 62 59 56 53 51 50 48 48 49 50 49 48 48 48 47 47
45 45 45 47 48 49 50 50 51 51 51 51 51 52 52 53 54 55 56 57 58 58 59 60 61 63 65 66 67 68 68 67 67 67 67 66 66 67 67 66 66 67 67 67 67 67 67 67 66 65 64 63 64 64 63 62 62 63 63 64 65 66 67 69 69 67 64 63 61 59 56 53 51 49 49 48 48 48 49 48 48 47 48 48 47
46 46 47 48 49 50 51 52 52 51 51 51 52 53 54 55 56 57 59 60 60 61 62 63 64 65 67 68 69 69 69 69 69 68 68 67 67 67 67 66 66 67 67 67 67 67 66 66 65 62 61 60 61 61 61 61 62 62 62 63 65 66 68 67 65 63 61 60 58 55 52 50 49 48 47 47 47 48 48 47 47 47 47 47 47
48 48 49 50 50 51 51 52 52 52 52 52 53 54 56 57 59 60 62 63 63 64 64 65 66 67 69 70 70 70 70 70 70 69 68 68 68 67 67 67 67 67 67 67 67 66 65 64 61 58 57 58 58 59 60 61 61 61 62 63 65 66 65 63 61 59 58 57 54 52 50 48 46 46 45 45 46 47 47 46 45 45 46 46 46
50 50 50 51 52 52 53 53 53 54 54 55 55 57 58 60 62 64 65 65 66 66 66 67 68 69 70 71 71 71 71 71 70 70 69 69 68 67 67 67 68 68 67 67 66 64 62 59 56 54 55 56 57 59 60 60 59 60 61 63 64 63 61 59 58 57 56 53 51 48 47 45 44 43 43 43 44 44 45 45 45 44 44 44 44
Wind_Direction
258 258 258 258 257 257 256 257 259 259 260 260 260 261 261 261 261 262 264 264 263 265 267 267 267 270 274 276 278 281 285 287 286 282 278 274 274 276 281 281 268 256 255 256 257 261 265 267 272 277 280 283 285 286 288 290 292 295 297 299 302 304 306 307 309 310 312 313 315 316 317 317 317 317 317 317 317 317 316 314 312 310 307 302 296
259 259 259 259 258 258 257 256 257 259 260 260 260 259 260 260 260 262 263 263 263 265 268 268 268 269 271 273 277 280 282 285 288 286 283 278 278 281 283 283 273 260 256 257 258 262 265 268 272 276 278 280 282 284 286 288 290 293 295 298 301 303 305 306 308 310 311 313 314 315 316 316 316 316 316 316 316 315 314 312 310 309 306 301 296
259 259 259 259 258 258 258 257 257 258 259 261 260 259 259 258 258 259 261 262 264 266 268 269 270 269 269 271 275 280 283 284 287 288 285 280 279 282 284 283 276 266 260 259 260 262 264 268 272 275 277 279 280 282 284 287 289 291 294 297 299 301 303 306 308 309 311 312 313 314 315 315 315 315 315 315 314 313 312 310 308 307 305 300 296
259 259 259 258 258 258 258 257 256 257 258 261 261 260 259 258 257 256 257 261 263 266 268 270 271 269 268 270 274 279 283 284 286 287 285 282 280 281 282 281 276 272 268 265 264 265 266 269 272 274 275 277 279 281 284 286 289 291 293 295 297 300 303 305 307 309 310 312 313 314 314 315 314 314 314 313 313 311 310 308 306 305 303 299 296
258 258 258 257 257 257 257 257 256 256 258 260 261 260 258 257 257 256 256 259 263 265 267 270 271 269 268 270 273 276 280 282 284 285 285 285 285 285 284 283 280 278 275 273 271 270 270 271 272 273 275 277 280 282 284 286 288 290 293 295 297 300 303 305 307 309 310 311 312 313 314 314 314 313 313 312 311 310 308 306 304 303 301 298 295
256 256 256 255 255 256 256 257 256 256 256 258 259 259 257 257 257 257 256 258 262 264 266 268 270 269 268 270 271 274 277 279 281 282 283 284 287 288 288 286 285 282 279 276 274 273 273 273 275 276 278 279 281 283 284 285 288 290 293 296 299 301 303 305 307 308 309 311 312 312 312 312 312 311 311 310 309 308 306 304 302 301 298 296 294
254 253 253 253 254 254 254 254 254 253 253 254 255 256 256 257 258 258 257 258 260 263 265 267 269 269 270 271 272 273 274 276 277 277 279 280 283 285 286 286 285 283 279 277 275 275 275 276 277 278 279 280 281 282 284 286 289 292 295 298 300 302 303 305 306 307 309 310 310 310 310 310 310 309 309 309 308 307 305 304 302 300 298 296 294
250 250 250 251 251 251 250 250 250 249 249 250 250 252 255 258 259 259 258 257 259 262 265 267 268 270 271 271 272 273 274 275 276 276 276 278 280 283 285 285 284 282 280 278 278 278 278 278 279 280 280 281 283 284 286 289 292 295 297 299 301 302 303 304 306 307 308 308 308 308 308 308 308 308 307 307 306 304 304 302 301 299 298 296 294
248 249 249 249 248 247 247 248 248 247 247 248 250 253 256 259 261 262 261 260 260 261 263 264 266 268 269 271 272 273 274 275 276 276 276 277 279 281 283 284 283 282 280 279 279 279 280 280 280 281 282 283 285 287 289 292 294 296 298 299 300 301 303 304 305 306 306 306 306 306 306 306 306 306 305 304 303 301 300 299 298 297 296 294 293
247 248 248 248 246 245 245 247 248 249 249 250 253 257 259 261 263 264 264 264 264 263 263 264 265 266 268 269 271 272 274 275 276 277 277 278 279 280 282 283 283 283 283 282 281 281 281 282 282 282 283 285 286 288 290 292 294 296 297 298 300 301 302 303 304 305 305 305 305 306 306 306 306 305 304 303 301 299 297 295 295 294 294 293 292
247 248 248 248 247 245 245 246 248 252 252 253 255 259 263 265 265 266 267 268 268 267 267 266 266 267 268 269 271 273 275 277 278 279 280 280 281 281 282 283 283 283 284 283 283 282 283 283 283 284 285 286 288 289 291 292 294 295 296 298 299 300 302 303 304 304 305 305 306 307 307 307 306 305 304 302 301 299 297 296 295 294 294 293 292
247 247 248 249 248 247 247 248 250 253 253 253 256 259 263 266 266 267 270 270 270 270 270 270 270 270 271 272 274 275 277 279 280 281 282 282 283 283 283 283 283 283 283 283 282 283 283 284 285 286 286 287 289 290 291 292 294 295 296 298 299 300 302 303 304 305 306 306 307 307 307 306 306 305 304 302 301 300 298 297 296 295 294 294 293
246 247 248 248 247 247 248 249 251 252 252 252 255 258 262 265 266 269 271 272 273 273 274 274 275 276 276 276 277 278 279 280 281 282 283 284 284 284 283 283 283 282 282 283 283 284 285 285 286 287 288 289 290 291 292 293 294 296 297 299 300 302 304 305 306 306 306 307 307 307 306 306 305 304 303 302 301 300 299 297 296 295 294 293 292
245 246 247 245 245 247 248 249 251 252 252 252 254 256 259 263 265 269 272 274 276 277 277 278 278 278 278 279 280 280 281 282 283 285 286 286 285 285 285 284 284 284 284 285 286 286 287 288 289 289 290 291 292 293 294 295 296 298 300 302 304 305 306 306 306 306 307 307 307 306 306 305 304 303 303 302 301 300 299 298 297 296 295 293 292
244 245 245 244 246 248 248 249 251 253 253 253 254 256 259 261 264 268 271 274 277 279 280 281 280 279 279 280 281 282 283 284 285 286 286 286 286 287 287 287 287 288 288 288 289 289 290 290 291 292 292 293 295 296 297 299 301 303 304 306 307 307 307 307 306 306 306 306 306 305 305 305 304 303 303 302 301 301 300 299 298 296 295 294 293
244 245 245 245 247 249 250 250 252 254 255 256 256 257 259 261 264 268 271 274 277 279 281 282 282 281 281 281 282 284 285 286 287 287 287 287 288 289 290 291 291 291 291 292 292 293 293 294 295 295 297 298 299 301 302 304 305 306 307 307 307 307 307 306 306 306 306 306 306 305 305 304 304 303 303 303 302 301 300 299 298 296 294 293 293
244 245 246 246 247 249 251 252 254 256 257 258 258 259 260 262 265 268 271 274 277 279 281 283 283 283 283 284 285 287 288 289 289 289 289 290 291 293 293 294 294 295 295 296 296 297 298 298 299 300 302 303 304 305 306 307 307 307 307 307 307 306 306 306 306 306 306 306 305 305 304 304 304 304 304 303 302 302 301 299 298 297 295 294 293
245 246 247 247 248 250 251 253 256 258 259 260 261 261 262 264 267 269 272 275 277 279 280 281 283 284 285 286 287 288 290 291 291 291 292 294 295 296 296 297 297 298 299 300 300 301 301 302 303 304 305 306 306 307 307 307 307 307 306 306 306 305 306 306 306 306 306 306 305 305 305 305 305 305 305 304 304 303 302 301 300 298 297 295 294
245 247 248 249 251 252 253 255 258 260 261 262 263 264 265 267 269 272 275 277 278 280 281 282 283 285 286 288 289 290 292 293 293 294 295 297 298 298 299 300 300 301 302 303 303 303 303 304 305 306 306 306 306 306 306 306 306 306 305 305 305 306 306 306 306 306 306 306 306 306 306 306 306 306 306 305 304 303 302 301 300 299 298 296 294
247 248 249 251 252 254 256 257 259 261 263 264 265 266 267 269 271 273 276 277 279 280 282 283 285 286 288 289 290 292 293 294 295 295 297 298 299 300 301 302 302 303 304 304 304 304 304 304 305 305 305 305 305 305 305 305 305 305 305 306 306 306 306 306 306 306 306 306 307 307 307 307 307 307 307 306 304 303 302 301 301 299 298 297 295
249 249 251 252 254 256 257 259 260 261 263 265 266 268 269 270 273 274 276 277 279 281 282 284 285 287 289 290 291 292 294 294 295 296 298 299 300 302 302 302 303 303 303 302 302 302 302 303 304 304 304 305 305 304 304 304 305 305 306 306 306 306 306 306 307 307 307 307 308 308 308 308 308 308 307 306 305 304 303 302 301 300 299 298 296
250 251 252 253 255 257 258 260 261 262 263 265 267 268 270 272 274 275 276 277 279 281 283 284 286 287 289 290 291 291 292 293 295 296 297 299 301 302 302 302 302 302 301 301 301 301 301 302 303 304 304 304 304 304 304 305 305 306 306 306 306 306 306 307 307 308 308 308 309 309 309 309 309 308 307 306 305 304 303 303 302 301 300 299 297
250 251 252 254 256 257 259 260 261 262 264 265 267 269 271 272 274 276 277 278 280 281 283 285 286 287 288 289 289 290 291 293 294 296 298 300 301 301 301 301 301 300 300 299 300 300 301 302 303 304 304 304 304 304 304 305 306 306 306 306 306 306 307 308 308 308 309 309 310 310 310 310 309 308 307 306 305 304 304 303 302 301 301 300 298
250 251 252 254 255 257 258 260 262 263 264 266 268 269 271 272 273 275 277 278 280 281 283 284 285 287 287 287 287 289 292 293 294 296 298 299 300 300 300 300 299 299 298 299 300 300 301 302 303 303 304 304 304 304 305 305 306 306 306 306 307 307 308 308 309 309 309 310 311 311 311 311 310 309 308 307 306 305 304 304 303 302 302 301 299
249 250 252 254 255 256 258 260 262 264 265 267 268 269 270 272 273 274 276 278 279 280 282 283 285 285 284 285 287 290 292 292 294 295 297 298 298 299 299 299 298 298 298 299 300 301 302 302 303 304 304 304 304 305 305 305 306 306 306 307 308 308 308 309 310 310 311 311 312 313 312 312 311 310 309 308 307 307 306 306 305 305 304 303 301
250 250 251 253 255 256 259 261 262 264 266 267 269 270 271 271 272 273 275 277 278 279 280 281 281 281 282 285 288 290 291 292 294 295 296 297 297 298 298 297 298 298 299 300 300 301 302 303 303 304 304 304 304 304 305 305 306 306 307 308 309 309 309 310 311 312 312 313 314 314 314 313 312 311 310 310 309 308 308 308 308 307 306 305 303
251 251 251 252 254 256 259 261 262 264 266 267 268 270 270 271 272 273 274 275 277 278 279 278 279 281 283 285 287 290 291 293 294 295 296 296 297 297 297 297 298 299 299 300 300 301 302 303 303 304 303 304 304 304 305 306 307 308 309 309 310 310 311 312 312 313 313 314 315 315 315 314 313 312 311 311 310 310 310 310 309 309 307 306 305
253 253 254 254 255 257 258 260 262 264 265 267 268 269 270 271 272 273 274 275 276 278 279 280 281 283 284 285 288 291 292 293 294 295 295 296 296 297 297 298 298 299 299 300 300 301 302 303 303 303 303 304 304 305 306 307 308 309 310 310 311 311 312 312 313 314 314 315 316 316 315 314 313 313 312 311 311 311 311 310 310 309 308 307 305
254 255 256 257 258 258 260 261 263 265 266 267 269 270 271 271 273 274 275 276 277 279 280 281 283 285 286 287 290 292 292 293 294 294 295 296 297 298 298 298 298 299 299 300 300 301 302 302 302 303 304 304 305 307 308 308 309 310 311 311 312 312 312 313 314 315 316 316 317 316 315 314 314 313 312 312 312 312 311 311 310 309 308 307 306
255 256 257 258 259 260 261 262 263 265 267 268 269 269 270 272 273 275 276 278 280 281 283 284 285 287 288 289 291 292 292 293 294 295 296 297 297 297 297 298 298 299 299 300 300 301 302 302 303 304 305 306 307 308 308 309 310 311 311 311 312 312 313 314 314 315 316 317 317 316 315 314 314 313 313 313 313 313 312 311 310 309 308 307 306
255 257 257 258 259 260 261 262 263 264 266 267 268 269 271 273 274 276 278 279 281 283 284 286 287 288 289 290 291 292 293 294 295 295 296 296 296 296 297 298 298 298 299 300 300 301 302 303 304 305 306 307 307 308 309 310 311 311 311 311 312 313 313 314 315 316 317 317 316 316 315 314 314 313 314 314 314 313 313 312 311 311 310 308 306
256 257 258 259 259 260 261 262 263 264 265 267 268 270 272 274 275 277 279 280 282 283 284 286 287 288 289 290 291 291 292 293 294 295 295 295 296 296 297 298 298 299 300 300 301 302 303 304 305 306 306 307 308 309 310 310 310 310 311 312 312 313 314 315 316 316 317 317 316 315 314 314 314 314 314 314 314 314 314 313 313 313 312 310 308
257 258 259 259 260 261 262 262 263 264 266 267 269 270 272 273 275 277 279 281 281 283 284 285 286 287 288 289 290 291 292 293 293 294 294 295 296 296 297 298 298 299 300 301 302 303 304 305 306 306 307 308 309 309 310 310 310 310 311 312 313 313 314 315 316 317 316 316 315 314 314 314 314 314 315 315 315 316 316 315 315 315 314 313 311
258 259 260 261 262 263 263 264 264 265 267 268 269 271 272 274 276 278 279 280 281 283 284 285 286 287 288 289 290 291 292 292 292 293 294 295 295 296 297 298 299 300 301 302 303 304 304 305 306 306 307 308 309 309 309 309 310 311 311 312 313 313 314 315 316 316 315 314 314 314 314 314 314 315 316 316 317 318 318 317 317 317 316 314 313
258 259 260 261 262 264 265 266 267 267 268 269 270 272 273 275 277 278 279 281 282 284 285 286 286 287 288 289 290 290 291 291 292 293 294 295 296 297 297 298 300 300 301 302 303 304 305 305 306 307 308 309 309 309 309 309 310 311 311 312 313 314 315 315 316 315 314 314 314 314 314 314 315 316 317 319 319 319 319 319 319 318 317 316 315
259 260 260 261 263 264 265 266 267 267 269 270 271 273 275 276 277 279 280 282 283 283 284 284 285 287 288 288 289 289 290 292 293 294 295 296 297 297 298 299 300 301 302 303 304 305 305 305 306 307 309 309 309 309 309 309 310 310 311 312 313 314 315 315 315 314 314 314 314 314 314 315 317 319 320 321 321 321 321 320 320 319 318 318 317
259 260 261 263 264 265 265 266 267 268 269 271 272 274 275 277 278 279 280 281 281 281 282 284 285 286 287 288 289 290 291 293 294 295 296 297 298 299 300 301 302 302 303 304 304 305 305 306 307 308 309 309 309 308 309 309 310 311 312 313 314 314 314 314 314 314 314 314 314 314 315 317 320 321 322 322 322 322 322 322 321 320 320 321 321
261 262 263 264 265 266 267 267 268 270 271 273 274 275 276 277 278 278 279 280 280 281 282 284 284 286 287 288 290 291 293 294 295 296 297 298 299 300 301 302 302 303 303 303 304 305 305 306 307 308 310 309 309 308 309 310 311 311 312 313 313 314 314 314 314 314 313 313 314 315 318 320 322 322 323 323 323 323 323 323 323 322 323 323 323
263 264 265 265 265 266 267 269 270 271 273 274 275 276 277 277 278 278 279 279 280 281 282 283 284 286 288 289 291 293 295 296 297 298 299 300 301 301 301 302 302 302 303 303 304 304 305 306 307 309 310 309 308 309 310 311 311 312 312 313 313 314 314 314 313 313 313 314 316 318 321 322 323 323 323 323 324 324 325 325 324 325 325 325 325
264 266 267 267 266 267 267 268 270 271 272 274 275 275 276 276 276 277 278 278 279 280 282 283 285 287 289 291 293 296 298 299 299 300 300 300 300 300 301 301 301 302 303 303 304 304 305 306 308 310 309 309 309 309 310 311 311 311 312 313 314 314 314 314 313 314 315 316 319 321 322 323 324 324 325 325 325 326 326 327 327 326 327 326 325
266 268 268 268 268 268 268 269 270 271 272 272 273 273 274 274 275 276 277 278 280 282 283 285 286 288 291 294 296 298 300 300 300 300 300 300 300 300 300 300 301 301 302 302 303 304 304 307 309 310 309 309 309 310 310 310 310 311 313 314 314 314 313 313 314 315 317 319 321 322 323 324 325 325 326 326 326 327 328 329 328 327 327 327 326
266 267 268 268 268 268 269 269 270 270 270 271 271 272 273 274 275 277 278 280 281 283 284 286 288 291 293 296 298 300 300 300 300 300 300 299 300 299 299 300 300 300 301 301 302 303 305 308 309 309 308 309 309 309 309 310 311 312 313 314 313 313 313 314 316 317 319 321 322 323 323 324 325 326 326 327 327 328 329 330 329 329 329 329 328
266 266 266 267 267 267 267 268 268 268 269 270 271 273 274 275 277 278 280 281 282 284 286 288 290 292 295 297 299 300 301 301 301 300 300 299 299 299 299 299 299 299 300 300 301 304 307 308 308 308 308 308 308 308 309 310 312 313 312 312 312 312 314 315 317 319 321 322 322 322 323 324 326 327 327 327 327 328 330 331 330 330 331 331 332
265 264 265 265 265 266 266 267 268 269 270 271 272 274 275 277 279 280 281 282 283 285 287 288 290 293 296 298 300 301 301 301 301 300 299 299 298 298 298 298 298 299 299 300 302 305 307 307 307 307 307 307 307 308 309 310 311 311 311 311 312 314 315 317 319 320 321 321 321 322 323 325 326 327 327 327 327 328 330 332 332 331 333 334 336
263 264 265 265 266 267 268 268 269 269 271 272 273 275 277 278 280 281 281 282 284 285 287 288 291 294 296 298 299 300 300 300 300 299 298 298 297 297 297 297 298 298 299 301 303 305 305 305 305 305 306 306 307 308 308 309 309 309 310 312 313 315 317 318 319 320 320 320 320 322 323 325 326 327 328 328 328 329 330 332 333 333 335 338 339
264 265 266 267 267 267 268 268 269 270 271 273 274 276 277 278 279 280 281 282 284 285 287 289 292 293 295 296 297 299 299 299 299 298 297 297 296 296 296 296 297 298 300 302 303 303 303 304 304 305 305 306 306 306 306 307 308 309 311 313 315 316 318 319 319 319 319 319 320 322 324 325 326 328 329 329 329 329 330 333 335 337 338 340 342
266 267 266 266 266 267 267 268 270 271 272 274 275 275 276 277 278 279 280 282 284 286 288 290 291 292 293 294 296 297 298 298 298 297 297 296 295 295 295 296 297 299 300 301 301 302 303 303 304 304 304 304 304 304 306 308 309 311 313 315 316 317 318 318 318 318 318 319 321 323 324 325 327 328 329 329 329 331 332 335 338 340 340 342 343
266 266 266 266 267 267 268 269 271 272 273 274 275 276 276 277 279 280 281 283 284 286 288 289 290 291 292 293 295 296 297 296 296 296 296 295 294 294 294 295 297 298 299 299 300 301 302 303 303 303 302 302 303 305 307 310 312 314 315 315 316 316 316 316 316 317 318 320 322 323 324 326 327 329 329 330 331 333 334 336 339 342 342 343 345
265 266 266 266 267 267 268 269 271 273 273 274 275 276 277 278 279 280 281 283 284 286 287 288 288 289 291 292 294 294 295 295 295 294 294 293 292 293 294 296 296 297 297 298 300 300 301 302 302 301 301 302 304 307 310 312 314 314 313 314 315 315 315 315 316 317 319 321 322 323 324 326 328 329 330 331 333 333 335 337 340 344 344 345 346
265 266 266 267 267 267 268 270 271 272 273 274 275 276 277 278 279 280 281 282 284 285 286 287 288 289 290 291 292 293 293 293 293 292 292 291 291 293 294 295 295 295 297 298 299 300 300 300 300 300 301 304 307 310 312 312 311 311 312 313 313 313 313 315 317 319 321 322 323 324 325 327 328 329 330 332 333 333 335 338 341 344 345 346 347
265 266 267 267 268 269 270 271 272 272 273 274 275 276 277 278 279 280 281 282 283 284 285 286 288 289 289 290 291 291 291 291 291 290 290 290 291 292 293 293 294 295 296 297 298 299 299 298 299 301 304 306 309 310 310 309 310 311 312 312 312 312 314 316 318 320 321 322 323 324 325 326 328 329 331 332 333 333 335 338 342 344 346 347 348